This is the latest recevied weather packets stored in our database for station/object KO4APQ. If no packets are shown the sender has not sent any weather packets the latest 10 day(s).
| Time | Temp. | Humidity | Pressure | Rain* | Wind** | Luminosity | Snow |
|---|---|---|---|---|---|---|---|
| 1778145219 | 17.22° C | 97% | 1011.3 hPa | 0 mm | - | 0 W/m² | - |
| 1778144915 | 17.22° C | 97% | 1011.3 hPa | 0 mm | - | 0 W/m² | - |
| 1778144611 | 17.22° C | 97% | 1011.2 hPa | 0 mm | - | 0 W/m² | - |
| 1778144309 | 17.22° C | 97% | 1011.4 hPa | 0 mm | - | 0 W/m² | - |
| 1778144005 | 17.22° C | 97% | 1011.3 hPa | 0 mm | - | 0 W/m² | - |
| 1778143703 | 17.22° C | 97% | 1011.3 hPa | 0 mm | - | 0 W/m² | - |
| 1778143399 | 17.22° C | 97% | 1011.3 hPa | 0 mm | - | 0 W/m² | - |
| 1778143097 | 17.22° C | 97% | 1011.3 hPa | 0 mm | - | 0 W/m² | - |
| 1778142793 | 17.22° C | 97% | 1011.4 hPa | 0 mm | - | 0 W/m² | - |
| 1778142489 | 17.22° C | 97% | 1011 hPa | 1.78 mm | - | 0 W/m² | - |
| 1778142185 | 17.22° C | 97% | 1010.7 hPa | 3.05 mm | - | 0 W/m² | - |
| 1778141882 | 17.22° C | 97% | 1011.3 hPa | 3.05 mm | - | 0 W/m² | - |
| 1778141578 | 17.22° C | 97% | 1012 hPa | 1.78 mm | - | 0 W/m² | - |
| 1778141275 | 17.22° C | 97% | 1012.2 hPa | 0 mm | - | 0 W/m² | - |
| 1778140971 | 17.22° C | 97% | 1011.8 hPa | 1.27 mm | - | 0 W/m² | - |
| 1778140666 | 17.22° C | 97% | 1012 hPa | 4.32 mm | - | 0 W/m² | - |
| 1778140363 | 17.22° C | 97% | 1011.6 hPa | 6.1 mm | - | 0 W/m² | - |
| 1778140059 | 17.22° C | 97% | 1011.7 hPa | 6.1 mm | - | 0 W/m² | - |
| 1778139757 | 17.22° C | 97% | 1012.3 hPa | 4.83 mm | - | 0 W/m² | - |
| 1778139453 | 17.22° C | 97% | 1012.8 hPa | 3.05 mm | - | 0 W/m² | - |
| 1778139150 | 17.22° C | 97% | 1012.3 hPa | 1.27 mm | - | 0 W/m² | - |
| 1778138848 | 17.22° C | 97% | 1012.1 hPa | 0 mm | - | 0 W/m² | - |
| 1778138545 | 17.22° C | 97% | 1012.3 hPa | 1.78 mm | - | 0 W/m² | - |
| 1778138243 | 17.22° C | 97% | 1012.3 hPa | 3.56 mm | - | 0 W/m² | - |
| 1778137939 | 17.22° C | 97% | 1012.3 hPa | 3.05 mm | - | 0 W/m² | - |
* Rain latest hour (hover to see other rain measurements)
** Current wind speed in m/s (hover to see current wind gust speed)